Regional Weather Roundup
Issued by NWS

Home | Current Version | Previous Version | Text Only | Print | Product List | Glossary Off
Versions: 1 2 3 4 5 6 7 8 9 10 11 12 13 14 15 16 17 18 19 20 21 22 23 24 25 26 27 28 29 30 31 32 33 34 35 36 37 38 39 40 41 42 43 44 45 46 47 48 49 50

000
ASUS44 KMEG 220510
RWRTN
TENNESSEE HOURLY STATE WEATHER ROUNDUP
NATIONAL WEATHER SERVICE MEMPHIS TN
1200 AM CDT SUN APR 22 2018

TNZ002-004-019-021-049-052-054-088>092-220600-
WEST TENNESSEE

CITY           SKY/WX    TMP DP  RH WIND       PRES   REMARKS
MEMPHIS INTL   LGT RAIN  66  55  67 E6        30.06R
NWS MEMPHIS      N/A     63 N/A N/A MISG        N/A
JACKSON        FAIR      65  44  46 E6        30.11F
DYERSBURG      LGT RAIN  66  43  43 E9        30.10F
SOMERVILLE       N/A     66  48  52 VRB5G12   30.04F
COVINGTON      MOCLDY    63  48  59 SE10      30.08S
UNION CITY     CLOUDY    63  45  51 NE5       30.12F
BOLIVAR        CLOUDY    64  45  48 E8        30.09F
PARIS          CLOUDY    63  39  42 E3        30.15F
HUNTINGDON     MOCLDY    63  41  45 E5        30.13F
LEXINGTON      MOCLDY    64  41  42 CALM      30.13F
SELMER         CLOUDY    64  45  48 SE5       30.12F
SAVANNAH       CLOUDY    64  46  52 CALM      30.13S
$$

TNZ008-025-027-028-033-062-065-066-220600-
NORTH MIDDLE TENNESSEE

CITY           SKY/WX    TMP DP  RH WIND       PRES   REMARKS
NASHVILLE      MOCLDY    58  41  53 SE5       30.19S
PORTLAND       PTCLDY    59  37  44 E6        30.20S
CLARKSVILLE    FAIR      61  36  39 E5        30.18R
SMYRNA         FAIR      55  45  68 CALM      30.20S
COOKEVILLE     PTCLDY    46  43  87 CALM      30.22S
LIVINGSTON     CLEAR     63  32  31 S6        30.22S
GALLATIN       MOCLDY    55  41  58 CALM      30.22S
CROSSVILLE     FAIR      56  35  45 S6        30.26S
ROCKWOOD       CLEAR     57  32  38 SW3       30.26R
$$

TNZ061-075-076-078-094-096-097-220600-
SOUTH MIDDLE TENNESSEE

CITY           SKY/WX    TMP DP  RH WIND       PRES   REMARKS
LEWISBURG      MOCLDY    57  46  67 SE3       30.17F
FAYETTEVILLE   CLOUDY    64  45  48 SE7       30.19R
TULLAHOMA      CLOUDY    63  39  42 CALM      30.20R
WINCHESTER     CLOUDY    63  41  45 VRB7      30.20S
MCMINNVILLE    MOCLDY    61  37  41 CALM      30.21S
COLUMBIA       MOCLDY    59  48  67 CALM      30.16R
SHELBYVILLE    CLOUDY    61  41  48 SE6       30.20R
$$

TNZ017-018-042-046-047-220600-
NORTHEAST TENNESSEE

CITY           SKY/WX    TMP DP  RH WIND       PRES   REMARKS
TRI CITIES     FAIR      48  37  65 N3        30.28S
ELIZABETHTON   FAIR      48  37  66 CALM      30.30R
$$

TNZ012-013-036-069-073-074-220600-
CENTRAL EAST TENNESSEE

CITY           SKY/WX    TMP DP  RH WIND       PRES   REMARKS
KNOXVILLE      FAIR      55  38  52 CALM      30.24R
OAK RIDGE      FAIR      50  42  74 CALM      30.26R
DOWNTOWN KNOXV   N/A     48  45  87 CALM      30.25S FOG
GATLINBURG     CLEAR     50  41  71 CALM      30.25R
MORRISTOWN     PTCLDY    55  34  44 CALM      30.25S
JACKSBORO      CLEAR     46  41  81 CALM      30.28S
$$

TNZ083-085-099-220600-
SOUTHEAST TENNESSEE

CITY           SKY/WX    TMP DP  RH WIND       PRES   REMARKS
CHATTANOOGA    MOCLDY    59  42  53 E3        30.23S
DAYTON         MOCLDY    50  48  93 CALM      30.24R
$$

SKY/WX REPORTED AS FAIR MEANS FEW OR NO CLOUDS BELOW
12 THOUSAND FEET.





USA.gov is the U.S. government's official web portal to all federal, state and local government web resources and services.